SL-8 R/B

基本信息
目录编号:
18161
目录名称:
SL-8 R/B
国际标识:
1987-057B
轨道中心:
EARTH
物体状态:
在轨
发射日期:
1987-07-06 UTC
国别:
俄罗斯(独联体) (CIS)
轨道信息
数据来源: 国际轨道数据
星历时间: 2026-09-14T06:45:16+0800
半长轴: 7351.069km
偏心率: 0.003015
轨道倾角: 82.929°
近地点辐角: 222.403°
升交点赤经: 78.940°
平近点角: 302.513°
近地点: 950.768km
远地点: 995.096km
周期: 104.541分钟
每日圈数: 13.774539
详细信息
发射场:
PKMTR
轨道高度:
LEO
数据来源:
AOE Integration Group
参考系:
TEME
时间系统:
UTC
历元类型:
SGP4
2D轨道图
3D轨道图
轨道高度分析图
轨道倾角分析图
轨道综合分析图
查看轨道综合分析图